Location: Killam
(52.7910°N, 111.8608°W)
Time: 23:58:55
(UTC+00:00)

DIWATA 2B (PO-101) - Visible Passes

Search period start: 13 March 2026 00:00
Search period end: 23 March 2026 00:00
Orbit: 558 x 575 km, 98.1° (Epoch: 13 March)

Date Brightness Start Highest point End Pass type
(mag) Time Alt. Az. Time Alt. Az. Time Alt. Az.
13 Mar ? 03:28:39 10° N 03:31:48 22° WNW 03:34:56 10° WSW visible
13 Mar ? 11:13:58 10° ENE 11:15:30 12° NE 11:17:02 10° NNE visible
13 Mar ? 12:45:49 10° SSE 12:49:50 75° ENE 12:53:52 10° NNW visible
14 Mar ? 03:29:34 10° N 03:32:41 22° WNW 03:35:48 10° WSW visible
14 Mar ? 11:14:49 10° ENE 11:16:24 12° NE 11:17:58 10° NNE visible
14 Mar ? 12:46:43 10° SSE 12:50:44 76° ENE 12:54:46 10° NNW visible
15 Mar ? 03:30:28 10° N 03:33:35 22° WNW 03:36:40 10° WSW visible
15 Mar ? 11:15:39 10° ENE 11:17:17 12° NE 11:18:54 10° NNE visible
15 Mar ? 12:47:35 10° SSE 12:51:37 77° ENE 12:55:39 10° NNW visible
16 Mar ? 03:31:22 10° N 03:34:27 22° WNW 03:37:32 10° WSW visible
16 Mar ? 11:16:29 10° ENE 11:18:08 12° NE 11:19:49 10° NNE visible
16 Mar ? 12:48:29 10° SSE 12:52:30 78° ENE 12:56:32 10° NNW visible
17 Mar ? 03:32:15 10° N 03:35:19 21° WNW 03:38:23 10° WSW visible
17 Mar ? 11:17:18 10° E 11:19:01 12° NE 11:20:44 10° NNE visible
17 Mar ? 12:49:21 10° SSE 12:53:22 79° ENE 12:57:24 10° NNW visible
18 Mar ? 03:33:09 10° N 03:36:12 21° WNW 03:39:14 10° WSW visible
18 Mar ? 11:18:08 10° E 11:19:52 13° NE 11:21:37 10° NNE visible
18 Mar ? 12:50:14 10° SSE 12:54:15 80° ENE 12:58:17 10° NNW visible
19 Mar ? 03:34:01 10° N 03:37:03 21° WNW 03:40:04 10° WSW visible
19 Mar ? 11:18:57 10° E 11:20:44 13° NE 11:22:32 10° NNE visible
19 Mar ? 12:51:05 10° SSE 12:55:07 81° ENE 12:59:09 10° NNW visible
20 Mar ? 03:34:54 10° NNW 03:37:55 21° WNW 03:40:55 10° WSW visible
20 Mar ? 11:19:46 10° E 11:21:36 13° NE 11:23:25 10° NNE visible
20 Mar ? 12:51:57 10° SSE 12:55:58 82° ENE 13:00:00 10° NNW visible
21 Mar ? 03:35:46 10° NNW 03:38:46 20° WNW 03:41:44 10° WSW visible
21 Mar ? 11:20:34 10° E 11:22:26 13° NE 11:24:18 10° NNE visible
22 Mar ? 03:36:38 10° NNW 03:39:36 20° WNW 03:42:34 10° WSW visible
22 Mar ? 11:21:23 10° E 11:23:17 13° NE 11:25:11 10° NNE visible
